This is the latest recevied weather packets stored in our database for station/object WE0DX-1. If no packets are shown the sender has not sent any weather packets the latest 10 day(s).
| Time | Temp. | Humidity | Pressure | Rain* | Wind** | Luminosity | Snow |
|---|---|---|---|---|---|---|---|
| 1777915197 | 25° C | 46% | 1002.7 hPa | 0 mm | - | 819 W/m² | - |
| 1777914894 | 25° C | 47% | 1002.8 hPa | 0 mm | - | 804 W/m² | - |
| 1777914591 | 24.44° C | 47% | 1002.6 hPa | 0 mm | - | 794 W/m² | - |
| 1777914287 | 23.89° C | 48% | 1002.7 hPa | 0 mm | - | 802 W/m² | - |
| 1777913985 | 23.89° C | 48% | 1002.6 hPa | 0 mm | - | 800 W/m² | - |
| 1777913681 | 23.89° C | 48% | 1002.7 hPa | 0 mm | - | 834 W/m² | - |
| 1777913378 | 23.89° C | 47% | 1002.7 hPa | 0 mm | - | 839 W/m² | - |
| 1777913074 | 23.89° C | 48% | 1002.7 hPa | 0 mm | - | 858 W/m² | - |
| 1777912771 | 23.89° C | 48% | 1002.9 hPa | 0 mm | - | 887 W/m² | - |
| 1777912466 | 23.33° C | 49% | 1002.8 hPa | 0 mm | - | 860 W/m² | - |
| 1777912163 | 23.33° C | 49% | 1002.7 hPa | 0 mm | - | 819 W/m² | - |
| 1777911859 | 23.33° C | 49% | 1002.9 hPa | 0 mm | - | 841 W/m² | - |
| 1777911556 | 23.33° C | 49% | 1002.7 hPa | 0 mm | - | 855 W/m² | - |
| 1777911252 | 23.33° C | 49% | 1002.8 hPa | 0 mm | - | 850 W/m² | - |
| 1777910949 | 23.33° C | 50% | 1002.7 hPa | 0 mm | - | 793 W/m² | - |
| 1777910647 | 23.33° C | 50% | 1002.8 hPa | 0 mm | - | 760 W/m² | - |
| 1777910343 | 22.78° C | 50% | 1003.1 hPa | 0 mm | - | 756 W/m² | - |
| 1777910040 | 23.33° C | 49% | 1002.9 hPa | 0 mm | - | 761 W/m² | - |
| 1777909737 | 22.78° C | 51% | 1002.8 hPa | 0 mm | - | 777 W/m² | - |
| 1777909434 | 22.22° C | 51% | 1003 hPa | 0 mm | - | 766 W/m² | - |
| 1777909132 | 22.22° C | 50% | 1002.9 hPa | 0 mm | - | 727 W/m² | - |
| 1777908830 | 22.78° C | 50% | 1002.8 hPa | 0 mm | - | 685 W/m² | - |
| 1777908526 | 22.22° C | 51% | 1002.8 hPa | 0 mm | - | 656 W/m² | - |
| 1777908224 | 21.67° C | 51% | 1002.9 hPa | 0 mm | - | 635 W/m² | - |
| 1777907920 | 21.67° C | 52% | 1003 hPa | 0 mm | - | 612 W/m² | - |
* Rain latest hour (hover to see other rain measurements)
** Current wind speed in m/s (hover to see current wind gust speed)